Location: Arrington
(35.8681°N, 86.7092°W)
Time: 05:40:14
(UTC+00:00)

USA 238 - Pass Details

Date: 23 November 2019
Orbit: 1023 x 1189 km, 63.4° (Epoch: 29 November)

Event Time Altitude Azimuth Distance (km) Brightness Sun altitude
Rises 00:36:39 0° 333° (NNW) 3,956 6.9 -24.3°
Reaches altitude 10° 00:39:27 10° 339° (NNW) 3,018 6.2 -24.8°
Enters shadow 00:46:08 48° 46° (NE) 1,487 4.1 -26.2°
